Hourly Data Report for December 06, 2004

TORONTO CITY
ONTARIO

43°40'00.000" N
79°24'00.000" W
112.50 m
6158355
71508
XTO

Download Data

Hourly Data (December 2004)
Hourly Data Report for December 6, 2004
TIME
LST
Temp Definition
°C
Dew Point Definition
°C
Rel Hum Definition
%
Precip. Amount Definition
mm

Wind Dir Definition
10's deg

Wind Spd Definition
km/h
Visibility Definition
km
Stn Press Definition
kPa
Hmdx Definition


Wind Chill Definition


Weather Definition


00:00 -2.4 -7.4 68   LegendMM LegendMM LegendMM 101.26     LegendNANA
01:00 -2.3 -7.2 69   LegendMM LegendMM LegendMM 101.21     LegendNANA
02:00 -2.3 -6.7 72   LegendMM LegendMM LegendMM 101.20     LegendNANA
03:00 -2.2 -7.5 67   LegendMM LegendMM LegendMM 101.17     LegendNANA
04:00 -1.1 -8.4 58   LegendMM LegendMM LegendMM 101.03     LegendNANA
05:00 -0.6 -6.7 63   LegendMM LegendMM LegendMM 100.98     LegendNANA
06:00 -0.5 -6.1 66   LegendMM LegendMM LegendMM 100.94     LegendNANA
07:00 -2.5 -9.1 60   LegendMM LegendMM LegendMM 100.97     LegendNANA
08:00 -3.1 -5.5 83   LegendMM LegendMM LegendMM 100.97     LegendNANA
09:00 -3.5 -4.5 93   LegendMM LegendMM LegendMM 100.90     LegendNANA
10:00 -2.5 -3.0 96   LegendMM LegendMM LegendMM 100.83     LegendNANA
11:00 -1.7 -2.1 97   LegendMM LegendMM LegendMM 100.77     LegendNANA
12:00 -1.7 -2.1 97   LegendMM LegendMM LegendMM 100.62     LegendNANA
13:00 -1.3 -1.6 98   LegendMM LegendMM LegendMM 100.55     LegendNANA
14:00 -0.9 -1.3 97   LegendMM LegendMM LegendMM 100.46     LegendNANA
15:00 -1.0 -1.4 97   LegendMM LegendMM LegendMM 100.43     LegendNANA
16:00 -1.2 -1.7 96   LegendMM LegendMM LegendMM 100.48     LegendNANA
17:00 -1.1 -1.7 96   LegendMM LegendMM LegendMM 100.50     LegendNANA
18:00 -0.7 -1.3 96   LegendMM LegendMM LegendMM 100.49     LegendNANA
19:00 -0.6 -1.1 96   LegendMM LegendMM LegendMM 100.46     LegendNANA
20:00 -0.8 -1.4 96   LegendMM LegendMM LegendMM 100.52     LegendNANA
21:00 -1.0 -1.6 96   LegendMM LegendMM LegendMM 100.47     LegendNANA
22:00 -1.2 -1.7 96   LegendMM LegendMM LegendMM 100.46     LegendNANA
23:00 -1.4 -1.8 97   LegendMM LegendMM LegendMM 100.48     LegendNANA

Notes on Data Quality.

Legend

  • E = Estimated
  • M = Missing
  • NA = Not Available*
  • [empty] = Indicates an unobserved value
Date modified: